Everett, WA

5:40 AM PST on December 08, 2019 (GMT -0800)
Snohomish County

Weather History for KPAE - July, 2019

Change the Weather History Date:

Monday, July 29, 2019

  Actual Average Record
Temperature  
Mean Temperature 66 °F -  
Max Temperature 78 °F 74 °F 90 °F (1958)
Min Temperature 57 °F 54 °F 45 °F (1954)
Cooling Degree Days 1    
Growing Degree Days 16 (Base 50)    
Moisture  
Dew Point 53 °F    
Average Humidity 65    
Maximum Humidity 87    
Minimum Humidity 42    
Precipitation  
Precipitation 0.00 in - - ()
Sea Level Pressure  
Sea Level Pressure 30.01 in    
Wind  
Wind Speed 5 mph (NNW)    
Max Wind Speed 13 mph    
Max Gust Speed 20 mph    
Visibility 10 miles    
Events      
Averages and records for this station are not official NWS values.
T = Trace of Precipitation, MM = Missing Value Source: NWS Daily Summary

Daily Weather History Graph

Daily Weather History Graph

Search for Another Location

Airport or City:

Astronomy

Jul. 29, 2019 Rise Set
Actual Time 5:41 AM PDT 8:48 PM PDT
Civil Twilight 5:04 AM PDT 9:25 PM PDT
Nautical Twilight 4:16 AM PDT 10:13 PM PDT
Astronomical Twilight 3:17 AM PDT 11:12 PM PDT
Moon 2:53 AM PDT (7/29) 7:04 PM PDT (7/29)
Length of Visible Light 16h 20m
Length of Day
15h 07m
Waning Crescent, 8% of the Moon is Illuminated
Jul 29
Waning Crescent
Jul 31
New
Aug 7
First Quarter
Aug 15
Full
Aug 23
Last Quarter

Hourly Weather History & Observations

Time (PDT) Temp. Dew Point Humidity Pressure Visibility Wind Dir Wind Speed Gust Speed Precip Events Conditions
5:53 AM 57.0 °F 52.0 °F 83% 30.06 in 10.0 mi Variable 3.5 mph - N/A   Clear
6:53 AM 57.9 °F 53.1 °F 84% 30.06 in 10.0 mi North 3.5 mph - N/A   Clear
7:53 AM 61.0 °F 53.1 °F 75% 30.06 in 10.0 mi North 3.5 mph - N/A   Clear
8:53 AM 64.0 °F 54.0 °F 70% 30.06 in 10.0 mi Calm Calm - N/A   Clear
9:53 AM 64.9 °F 53.1 °F 65% 30.06 in 10.0 mi WSW 5.8 mph - N/A   Clear
10:53 AM 66.9 °F 53.1 °F 61% 30.05 in 10.0 mi WNW 3.5 mph - N/A   Clear
11:53 AM 70.0 °F 53.1 °F 55% 30.04 in 10.0 mi SW 4.6 mph - N/A   Clear
12:53 PM 72.0 °F 53.1 °F 51% 30.03 in 10.0 mi WSW 5.8 mph - N/A   Clear
1:53 PM 75.9 °F 54.0 °F 46% 30.01 in 10.0 mi West 6.9 mph - N/A   Clear
2:53 PM 75.9 °F 53.1 °F 45% 30.00 in 10.0 mi Variable 5.8 mph - N/A   Clear
3:53 PM 75.9 °F 52.0 °F 43% 29.99 in 10.0 mi NW 5.8 mph - N/A   Clear
4:53 PM 75.9 °F 51.1 °F 42% 29.97 in 10.0 mi North 5.8 mph - N/A   Clear
5:53 PM 73.0 °F 51.1 °F 46% 29.97 in 10.0 mi North 8.1 mph - N/A   Clear
6:53 PM 70.0 °F 52.0 °F 53% 29.96 in 10.0 mi North 11.5 mph - N/A   Clear
7:53 PM 64.0 °F 55.0 °F 73% 29.96 in 10.0 mi North 8.1 mph - N/A   Clear
8:53 PM 60.1 °F 54.0 °F 80% 29.97 in 10.0 mi North 12.7 mph 19.6 mph N/A   Clear
9:53 PM 59.0 °F 54.0 °F 83% 29.98 in 10.0 mi North 11.5 mph 19.6 mph N/A   Clear
10:53 PM 57.9 °F 53.1 °F 84% 29.99 in 10.0 mi North 11.5 mph 18.4 mph N/A   Clear
11:53 PM 57.0 °F 53.1 °F 87% 29.99 in 10.0 mi North 9.2 mph - N/A   Partly Cloudy